Location: Goettingen
(51.5300°N, 9.9433°E)
Time: 05:54:51
(UTC+01:00)

ISS - Pass Details

Date: 26 February 2019
Orbit: 406 x 411 km, 51.6° (Epoch: 20 March)

Event Time Altitude Azimuth Distance (km) Brightness Sun altitude
Exits shadow 05:33:31 - 191° (S) 1,647 -0.9 -16.2°
Reaches altitude 10° 05:34:09 10° 184° (S) 1,460 -1.1 -16.1°
Maximum altitude 05:36:19 17° 142° (SE) 1,130 -1.2 -15.7°
Drops below altitude 10° 05:38:29 10° 100° (E) 1,468 0.2 -15.4°
Sets 05:41:05 0° 79° (E) 2,333 1.9 -15.0°
